sat.trackr.live / text

‹ back to catalog

STARLINK-11513 [DTC]

NORAD 62589 · 2025-008C

PAYLOAD ACTIVE UNKNOWN

§ Identity

Operator
Country
US
Launch date
2025-01-13
Launch site
AFETR
Launch vehicle
Mass (kg)
RCS (m²)

Purposes: comms

External: N2YO · Heavens-Above · Gunter

§ Orbital elements

Epoch: 2026-09-21T15:41:00.174336Z

Period
91.67 min
Inclination
43.0008°
Eccentricity
0.0002298
Mean motion
15.70867743 rev/d
Perigee alt
354.9 km
Apogee alt
358.0 km
Semi-major
6,734.6 km
B*
1.1124e-3
RAAN
25.0165°
Arg perigee
288.7937°
Mean anomaly
71.2682°
Rev number
9,693

§ Raw data

STARLINK-11513 [DTC]1 62589U 25008C   26264.65347424  .00144985  00000+0  11124-2 0  99912 62589  43.0008  25.0165 0002298 288.7937  71.2682 15.70867743 96932

JSON: /api/v1/satellites/62589 · /tle

For live sub-satellite position, see the globe view (requires WebGL).

§ Visibility from observer

Set your observer location to see the next 7 days of passes ≥ 10°. The values pass through the URL so the page stays shareable.

No JS? Fill the form by hand. The geolocation button needs JavaScript.